SCP
0 0 0 0 0 0 0 1 1 1 1 0 0 0 0 0 0 0 0 0 0 1 1 1 1 1 0 0 0 0 0 0 0 0 0 0 0 0 0 0 0 0 0
0 0 0 0 0 0 0 0 1 1 0 0 0 0 0 0 0 0 0 0 1 1 1 1 1 1 1 1 0 0 0 0 0 0 0 0 0 0 0 0 0 0 0
0 0 0 0 0 0 0 0 1 1 1 0 0 0 0 0 0 0 0 0 1 1 1 2 2 2 1 1 0 0 0 0 0 0 0 0 0 0 0 0 0 0 0
0 0 0 0 0 0 1 1 1 1 1 1 1 0 0 0 0 0 0 0 1 2 2 2 3 3 2 1 1 1 1 0 0 0 0 0 0 0 0 0 0 0 0
0 0 0 1 1 0 0 1 1 0 0 0 0 0 0 0 0 0 0 0 0 2 2 3 3 3 3 2 2 2 1 0 0 0 0 0 0 0 0 0 0 0 0
0 0 0 0 0 0 1 1 1 1 0 0 1 1 0 0 0 0 0 0 0 0 1 2 4 4 3 3 3 4 2 1 0 0 0 0 0 0 0 0 0 0 0
0 0 0 0 0 0 0 1 1 1 1 1 1 0 0 0 0 0 0 0 0 0 0 1 2 5 5 3 3 3 3 2 0 0 0 0 0 0 0 0 0 0 0
0 0 0 0 0 0 0 0 1 1 1 1 1 0 0 0 0 0 0 0 0 0 0 1 2 3 4 3 3 0 1 1 0 0 0 0 0 0 0 0 0 0 0
0 0 0 0 0 0 0 0 0 0 1 1 0 1 0 0 0 0 0 0 0 0 0 1 2 2 1 0 0 0 0 0 0 0 0 0 0 0 0 0 0 0 0
0 0 0 0 0 0 0 0 0 0 1 1 1 0 1 0 0 0 0 0 0 0 0 1 1 0 0 0 0 0 0 0 0 0 0 0 0 0 0 0 0 0 0
0 0 0 0 0 0 0 0 0 0 0 0 0 1 0 0 0 0 0 0 0 0 0 0 0 0 0 0 0 0 0 0 0 0 0 0 0 0 0 0 0 0 0
0 0 0 0 0 0 0 0 0 0 0 0 0 1 1 0 1 1 1 0 0 0 0 0 0 0 0 0 0 0 0 0 0 0 0 0 0 0 0 0 0 0 0
0 0 0 0 0 0 0 0 0 0 0 0 0 0 1 1 1 0 0 0 0 0 0 0 0 0 0 0 0 0 0 0 0 0 0 0 0 0 0 0 0 0 0
0 0 0 0 0 0 0 0 0 0 0 0 0 0 1 1 1 1 1 0 0 0 0 0 0 0 0 0 0 0 0 0 0 0 0 0 0 0 0 0 0 0 0
0 0 0 0 0 0 0 0 0 0 0 0 0 0 0 0 1 0 0 0 0 0 0 0 0 0 0 0 0 0 0 0 0 0 0 0 0 0 0 0 0 0 0
0 0 0 0 0 0 0 0 0 0 0 0 0 0 0 0 0 0 0 0 0 0 0 0 0 0 0 0 0 0 0 0 0 0 0 0 0 0 0 0 0 0 0
0 0 0 0 0 0 0 0 0 0 0 0 0 0 0 0 0 0 0 0 0 0 0 0 0 0 0 0 0 0 0 0 0 0 0 0 0 0 0 0 0 0 0
0 0 0 0 0 0 0 0 0 0 0 0 0 0 0 0 0 0 0 0 0 0 0 0 0 0 0 0 0 0 0 0 0 0 0 0 0 0 0 0 0 0 0
0 0 0 0 0 0 0 0 0 0 0 0 0 0 0 0 0 0 0 0 0 0 0 0 0 0 0 0 0 0 0 0 0 0 0 0 0 0 0 0 0 0 0
0 0 0 0 0 0 0 0 0 0 0 0 0 0 0 0 0 0 0 0 0 0 0 0 0 0 0 0 0 0 0 0 0 0 0 0 0 0 0 0 0 0 0
0 0 0 0 0 0 0 0 0 0 0 0 0 0 0 0 0 0 0 0 0 0 0 0 0 0 0 0 0 0 0 0 0 0 0 0 0 0 0 0 0 0 0
0 0 0 0 0 -0 -0 0 0 0 0 0 0 0 0 0 0 0 0 0 0 0 0 0 0 0 0 0 0 0 0 0 0 0 0 0 0 0 0 0 0 0 0
-0 -0 -0 -0 -0 0 -0 0 0 0 0 0 0 0 0 0 0 0 0 0 0 0 0 0 0 0 0 0 0 0 0 0 0 0 0 0 0 0 0 0 0 0 0
-0 -0 -0 -0 -0 -0 -0 -0 -0 0 0 0 0 0 0 0 0 0 0 0 0 0 0 0 0 0 0 0 0 0 0 0 0 0 0 0 0 0 0 0 0 0 0
0 0 0 -0 -0 -0 -0 -0 0 0 0 0 0 0 0 0 0 0 0 0 0 0 0 0 0 0 -0 0 0 0 0 0 0 0 0 0 0 0 0 0 0 0 0
0 -0 0 0 -0 -0 -0 -0 0 0 0 0 0 0 0 0 0 0 0 0 -0 0 0 0 0 -0 0 0 0 0 0 0 0 0 0 0 0 0 0 0 0 0 0
Wind_Speed_500mb
39 42 52 47 46 43 39 38 40 41 47 46 46 39 35 40 38 44 49 42 37 36 42 44 56 60 55 50 47 45 44 42 38 33 30 26 23 21 20 20 19 21 22
39 49 49 47 53 54 53 52 49 52 54 47 45 54 49 45 43 37 48 47 49 53 50 46 54 63 60 57 54 52 51 47 43 39 34 31 28 27 25 24 23 24 25
38 39 48 51 51 52 53 54 50 56 59 58 54 47 45 53 57 49 47 48 50 56 59 53 58 61 64 64 62 61 59 53 49 45 39 36 32 31 31 29 28 28 29
32 38 43 49 54 53 58 56 61 58 60 63 63 64 63 51 54 59 58 54 57 64 61 58 61 63 65 67 72 70 66 63 57 48 42 39 36 34 35 32 31 32 33
37 37 40 45 53 58 65 67 66 68 68 73 74 65 59 59 59 57 62 60 63 63 65 65 67 72 76 74 77 83 76 80 65 52 45 41 36 33 32 31 32 35 37
40 39 40 43 47 52 62 64 73 71 70 72 73 62 63 65 64 63 64 64 66 70 73 72 72 75 78 83 86 97 88 87 75 50 41 35 32 35 35 36 36 38 38
48 48 46 42 41 45 48 63 67 69 68 68 73 72 72 72 72 71 76 75 69 69 68 69 74 81 85 90 89 92 105 78 80 40 33 29 36 37 39 41 40 40 39
52 55 59 59 54 51 49 53 56 63 68 67 66 72 72 72 76 72 66 69 70 81 79 71 72 76 78 81 78 80 81 88 70 56 51 42 35 41 50 44 41 46 47
65 64 64 64 65 60 58 55 52 55 60 65 63 63 30 40 63 68 60 49 48 60 64 66 69 63 64 64 67 71 84 65 58 55 67 63 37 47 49 49 48 52 58
84 75 70 65 61 60 62 64 58 53 51 58 71 66 65 68 63 61 61 47 41 42 41 38 37 45 55 61 68 67 61 61 49 54 53 39 42 50 56 58 50 61 64
95 91 85 76 69 66 61 57 60 56 57 55 54 69 74 64 66 72 72 69 67 68 61 56 57 58 59 59 64 58 39 28 24 23 41 53 43 44 48 55 61 65 61
98 85 81 78 75 73 72 69 58 51 55 57 58 55 63 61 67 63 69 80 77 74 64 64 53 49 50 51 28 27 25 38 46 31 38 40 41 44 48 55 57 56 52
90 84 76 73 74 70 71 72 70 62 53 51 54 62 61 65 64 73 73 73 67 55 53 54 51 47 44 35 38 34 48 32 26 28 30 32 37 45 47 47 44 38 36
74 66 72 68 67 66 61 54 62 62 61 61 54 49 52 62 60 65 69 72 67 67 57 51 50 46 38 37 37 42 33 26 25 23 25 30 37 39 36 30 28 22 22
68 58 62 72 62 57 58 59 70 69 67 69 66 55 51 48 53 60 61 59 63 58 57 56 52 43 42 40 38 34 29 25 25 25 21 24 32 27 23 22 17 14 16
65 64 66 66 60 54 54 57 56 62 68 73 75 68 61 54 58 53 50 52 58 60 62 50 46 46 39 35 32 31 30 28 21 20 20 20 18 16 16 14 15 13 14
60 59 62 58 58 55 53 51 51 48 53 62 66 67 67 61 51 55 47 43 49 55 57 42 37 40 36 36 37 35 26 19 22 21 19 15 14 13 10 9 12 15 17
64 60 57 57 55 54 50 49 50 52 47 38 44 47 51 51 50 40 45 43 46 51 48 33 30 37 35 39 34 28 20 17 9 11 10 12 16 12 8 11 16 19 17
60 56 56 56 56 54 52 50 42 43 46 48 50 45 43 41 45 46 42 40 47 42 33 23 30 33 34 33 27 19 17 19 17 15 17 21 18 12 12 16 21 21 23
53 51 47 46 47 45 44 40 42 40 35 32 33 35 36 34 36 38 37 42 42 31 22 22 35 38 37 31 25 18 17 15 5 12 18 12 15 14 20 20 25 27 28
40 39 39 36 27 29 29 29 32 31 27 22 20 23 25 26 25 26 33 36 32 22 24 34 35 37 36 29 20 18 12 7 6 13 9 15 17 15 16 20 23 22 28
36 35 31 18 13 12 8 14 23 21 23 21 26 24 21 22 19 24 26 23 17 18 33 31 33 30 21 17 9 7 4 5 22 10 10 6 6 13 21 25 24 30 35
35 29 22 11 9 13 13 19 25 25 21 34 32 31 30 32 32 26 26 33 34 28 21 18 21 18 15 10 9 8 6 6 5 3 8 8 12 18 27 31 37 38 32
39 36 31 20 11 6 6 20 28 31 39 43 49 43 42 38 34 33 37 35 30 29 32 32 30 28 22 20 14 5 3 5 8 5 7 10 18 29 30 34 31 22 26
39 39 37 32 26 25 20 34 36 54 55 52 53 47 43 41 35 31 35 46 49 52 49 47 43 38 29 24 23 13 8 9 6 7 10 13 23 30 28 13 8 21 26
45 45 47 45 37 34 29 52 64 62 61 59 53 51 48 50 50 50 53 55 56 51 42 40 38 33 27 25 21 21 22 18 9 6 8 21 25 24 13 10 18 21 27
Wind_Direction_500mb
283 286 284 281 273 269 265 264 266 270 275 270 270 271 260 256 267 255 244 254 256 264 264 256 241 244 252 254 256 259 263 262 260 259 257 259 264 274 287 295 303 312 318
276 281 273 273 283 259 272 267 266 271 271 276 270 270 265 263 260 269 249 253 262 270 265 248 245 246 252 255 254 257 261 259 258 257 258 258 262 268 277 285 293 303 309
275 285 269 274 281 272 266 269 266 270 268 269 264 263 266 259 260 256 259 264 269 274 271 258 251 254 255 257 256 257 260 255 253 255 257 258 260 267 274 281 288 296 302
285 278 268 272 272 265 268 265 262 267 265 270 270 266 268 266 260 256 255 262 269 272 272 273 264 260 259 262 258 260 257 257 253 250 254 257 257 264 273 280 287 291 297
289 287 284 278 278 268 256 259 262 264 269 273 271 267 262 269 264 261 256 259 271 271 270 269 271 272 268 266 264 254 255 260 249 247 249 252 258 264 276 286 293 292 297
298 294 286 282 277 276 269 263 263 264 266 277 264 263 266 271 266 262 260 258 263 269 266 267 269 271 272 270 267 259 262 244 243 243 246 257 258 261 272 278 285 297 293
294 290 288 288 279 278 265 254 259 264 264 265 267 267 264 267 269 266 261 260 260 261 266 267 269 271 272 269 269 264 258 243 244 242 242 250 257 261 267 266 275 287 290
313 304 295 287 285 286 280 266 260 262 263 261 260 262 270 273 264 265 268 268 267 260 266 268 266 274 273 269 270 269 277 291 259 267 284 254 265 259 256 252 266 285 285
315 308 306 302 289 279 280 278 280 270 264 262 261 255 259 252 270 276 281 284 279 270 271 274 274 274 272 267 266 271 263 284 269 273 241 248 244 246 240 256 267 280 286
317 308 302 301 296 287 275 271 275 275 273 268 265 262 256 258 269 284 275 278 280 274 276 289 285 274 267 270 269 285 261 275 256 265 278 215 248 245 252 256 272 285 284
312 306 301 297 291 288 276 270 266 267 268 265 265 265 265 263 263 263 273 276 275 277 278 283 279 279 281 284 290 288 276 251 272 288 253 262 259 265 250 273 279 279 280
310 301 296 294 290 281 274 269 262 260 260 262 261 261 264 264 261 264 264 270 274 275 280 285 286 285 289 289 273 246 266 283 275 261 236 250 256 263 268 271 274 280 279
305 299 296 289 288 287 277 266 265 258 257 262 263 258 261 262 265 263 264 265 271 278 283 285 287 288 288 268 255 257 281 271 245 230 238 251 257 263 269 278 281 281 278
302 296 294 290 284 284 283 270 261 257 251 252 255 258 259 259 262 261 263 261 266 271 272 277 283 280 272 248 253 265 259 235 231 247 247 261 268 272 280 282 288 291 286
299 293 286 291 288 285 284 273 258 251 249 248 251 255 260 263 266 266 266 263 260 262 266 272 273 265 251 245 247 250 237 233 239 251 271 271 272 270 287 302 300 296 297
296 292 293 293 292 285 280 277 273 257 250 246 246 253 257 265 264 268 270 264 257 256 260 267 267 262 254 246 240 229 226 236 262 267 272 266 255 263 298 318 310 307 306
302 297 292 287 286 281 278 273 269 264 258 254 247 250 256 257 266 263 267 263 257 249 251 251 262 252 244 232 228 222 229 243 259 276 257 244 245 273 303 327 340 333 318
305 301 294 289 283 278 275 270 258 250 253 253 244 245 251 251 259 270 258 261 251 246 245 244 259 231 220 219 217 221 239 274 243 240 242 251 263 268 293 324 324 318 327
306 300 295 289 285 279 273 268 260 255 251 252 244 244 248 248 250 260 256 251 241 236 229 223 268 218 209 206 212 215 239 247 246 259 274 264 256 265 279 288 289 298 302
312 307 302 297 292 289 281 261 251 249 252 252 248 250 255 258 257 257 247 235 221 204 232 219 202 194 192 185 204 212 228 246 315 269 274 250 235 270 265 265 264 280 293
330 323 317 311 303 292 276 251 238 227 238 242 236 252 256 264 248 239 233 221 200 199 199 191 183 183 186 188 215 242 244 238 204 153 178 237 249 247 245 265 274 288 295
342 333 326 321 304 305 267 237 208 208 212 215 235 222 232 209 202 196 184 181 185 179 190 186 176 183 193 221 219 188 223 276 173 194 210 256 253 262 269 271 282 294 293
359 357 359 349 317 308 302 175 175 203 221 189 210 192 188 167 164 163 155 144 135 136 146 168 161 149 142 164 187 171 194 214 210 260 240 278 289 290 280 282 283 289 286
28 29 35 42 49 15 287 175 176 188 184 165 149 144 140 134 133 135 135 132 129 126 124 121 114 100 97 94 102 144 211 211 182 264 288 279 295 310 301 290 291 286 276
42 44 51 53 62 87 122 137 150 142 131 127 123 120 121 122 123 129 134 125 121 118 113 104 91 78 80 81 66 53 96 95 161 256 283 304 317 313 313 284 287 298 297
58 60 64 65 71 90 119 126 120 122 121 115 112 111 111 112 115 120 122 120 116 111 107 103 92 77 84 72 65 54 53 49 23 332 329 324 308 315 308 275 297 298 311
Wind_Speed_850mb
39 42 52 47 46 43 39 38 40 41 47 46 46 39 35 40 38 44 49 42 37 36 42 44 56 60 55 50 47 45 44 42 38 33 30 26 23 21 20 20 19 21 22
39 49 49 47 53 54 53 52 49 52 54 47 45 54 49 45 43 37 48 47 49 53 50 46 54 63 60 57 54 52 51 47 43 39 34 31 28 27 25 24 23 24 25
38 39 48 51 51 52 53 54 50 56 59 58 54 47 45 53 57 49 47 48 50 56 59 53 58 61 64 64 62 61 59 53 49 45 39 36 32 31 31 29 28 28 29
32 38 43 49 54 53 58 56 61 58 60 63 63 64 63 51 54 59 58 54 57 64 61 58 61 63 65 67 72 70 66 63 57 48 42 39 36 34 35 32 31 32 33
37 37 40 45 53 58 65 67 66 68 68 73 74 65 59 59 59 57 62 60 63 63 65 65 67 72 76 74 77 83 76 80 65 52 45 41 36 33 32 31 32 35 37
40 39 40 43 47 52 62 64 73 71 70 72 73 62 63 65 64 63 64 64 66 70 73 72 72 75 78 83 86 97 88 87 75 50 41 35 32 35 35 36 36 38 38
48 48 46 42 41 45 48 63 67 69 68 68 73 72 72 72 72 71 76 75 69 69 68 69 74 81 85 90 89 92 105 78 80 40 33 29 36 37 39 41 40 40 39
52 55 59 59 54 51 49 53 56 63 68 67 66 72 72 72 76 72 66 69 70 81 79 71 72 76 78 81 78 80 81 88 70 56 51 42 35 41 50 44 41 46 47
65 64 64 64 65 60 58 55 52 55 60 65 63 63 30 40 63 68 60 49 48 60 64 66 69 63 64 64 67 71 84 65 58 55 67 63 37 47 49 49 48 52 58
84 75 70 65 61 60 62 64 58 53 51 58 71 66 65 68 63 61 61 47 41 42 41 38 37 45 55 61 68 67 61 61 49 54 53 39 42 50 56 58 50 61 64
95 91 85 76 69 66 61 57 60 56 57 55 54 69 74 64 66 72 72 69 67 68 61 56 57 58 59 59 64 58 39 28 24 23 41 53 43 44 48 55 61 65 61
98 85 81 78 75 73 72 69 58 51 55 57 58 55 63 61 67 63 69 80 77 74 64 64 53 49 50 51 28 27 25 38 46 31 38 40 41 44 48 55 57 56 52
90 84 76 73 74 70 71 72 70 62 53 51 54 62 61 65 64 73 73 73 67 55 53 54 51 47 44 35 38 34 48 32 26 28 30 32 37 45 47 47 44 38 36
74 66 72 68 67 66 61 54 62 62 61 61 54 49 52 62 60 65 69 72 67 67 57 51 50 46 38 37 37 42 33 26 25 23 25 30 37 39 36 30 28 22 22
68 58 62 72 62 57 58 59 70 69 67 69 66 55 51 48 53 60 61 59 63 58 57 56 52 43 42 40 38 34 29 25 25 25 21 24 32 27 23 22 17 14 16
65 64 66 66 60 54 54 57 56 62 68 73 75 68 61 54 58 53 50 52 58 60 62 50 46 46 39 35 32 31 30 28 21 20 20 20 18 16 16 14 15 13 14
60 59 62 58 58 55 53 51 51 48 53 62 66 67 67 61 51 55 47 43 49 55 57 42 37 40 36 36 37 35 26 19 22 21 19 15 14 13 10 9 12 15 17
64 60 57 57 55 54 50 49 50 52 47 38 44 47 51 51 50 40 45 43 46 51 48 33 30 37 35 39 34 28 20 17 9 11 10 12 16 12 8 11 16 19 17
60 56 56 56 56 54 52 50 42 43 46 48 50 45 43 41 45 46 42 40 47 42 33 23 30 33 34 33 27 19 17 19 17 15 17 21 18 12 12 16 21 21 23
53 51 47 46 47 45 44 40 42 40 35 32 33 35 36 34 36 38 37 42 42 31 22 22 35 38 37 31 25 18 17 15 5 12 18 12 15 14 20 20 25 27 28
40 39 39 36 27 29 29 29 32 31 27 22 20 23 25 26 25 26 33 36 32 22 24 34 35 37 36 29 20 18 12 7 6 13 9 15 17 15 16 20 23 22 28
36 35 31 18 13 12 8 14 23 21 23 21 26 24 21 22 19 24 26 23 17 18 33 31 33 30 21 17 9 7 4 5 22 10 10 6 6 13 21 25 24 30 35
35 29 22 11 9 13 13 19 25 25 21 34 32 31 30 32 32 26 26 33 34 28 21 18 21 18 15 10 9 8 6 6 5 3 8 8 12 18 27 31 37 38 32
39 36 31 20 11 6 6 20 28 31 39 43 49 43 42 38 34 33 37 35 30 29 32 32 30 28 22 20 14 5 3 5 8 5 7 10 18 29 30 34 31 22 26
39 39 37 32 26 25 20 34 36 54 55 52 53 47 43 41 35 31 35 46 49 52 49 47 43 38 29 24 23 13 8 9 6 7 10 13 23 30 28 13 8 21 26
45 45 47 45 37 34 29 52 64 62 61 59 53 51 48 50 50 50 53 55 56 51 42 40 38 33 27 25 21 21 22 18 9 6 8 21 25 24 13 10 18 21 27
Wind_Direction_850mb
283 286 284 281 273 269 265 264 266 270 275 270 270 271 260 256 267 255 244 254 256 264 264 256 241 244 252 254 256 259 263 262 260 259 257 259 264 274 287 295 303 312 318
276 281 273 273 283 259 272 267 266 271 271 276 270 270 265 263 260 269 249 253 262 270 265 248 245 246 252 255 254 257 261 259 258 257 258 258 262 268 277 285 293 303 309
275 285 269 274 281 272 266 269 266 270 268 269 264 263 266 259 260 256 259 264 269 274 271 258 251 254 255 257 256 257 260 255 253 255 257 258 260 267 274 281 288 296 302
285 278 268 272 272 265 268 265 262 267 265 270 270 266 268 266 260 256 255 262 269 272 272 273 264 260 259 262 258 260 257 257 253 250 254 257 257 264 273 280 287 291 297
289 287 284 278 278 268 256 259 262 264 269 273 271 267 262 269 264 261 256 259 271 271 270 269 271 272 268 266 264 254 255 260 249 247 249 252 258 264 276 286 293 292 297
298 294 286 282 277 276 269 263 263 264 266 277 264 263 266 271 266 262 260 258 263 269 266 267 269 271 272 270 267 259 262 244 243 243 246 257 258 261 272 278 285 297 293
294 290 288 288 279 278 265 254 259 264 264 265 267 267 264 267 269 266 261 260 260 261 266 267 269 271 272 269 269 264 258 243 244 242 242 250 257 261 267 266 275 287 290
313 304 295 287 285 286 280 266 260 262 263 261 260 262 270 273 264 265 268 268 267 260 266 268 266 274 273 269 270 269 277 291 259 267 284 254 265 259 256 252 266 285 285
315 308 306 302 289 279 280 278 280 270 264 262 261 255 259 252 270 276 281 284 279 270 271 274 274 274 272 267 266 271 263 284 269 273 241 248 244 246 240 256 267 280 286
317 308 302 301 296 287 275 271 275 275 273 268 265 262 256 258 269 284 275 278 280 274 276 289 285 274 267 270 269 285 261 275 256 265 278 215 248 245 252 256 272 285 284
312 306 301 297 291 288 276 270 266 267 268 265 265 265 265 263 263 263 273 276 275 277 278 283 279 279 281 284 290 288 276 251 272 288 253 262 259 265 250 273 279 279 280
310 301 296 294 290 281 274 269 262 260 260 262 261 261 264 264 261 264 264 270 274 275 280 285 286 285 289 289 273 246 266 283 275 261 236 250 256 263 268 271 274 280 279
305 299 296 289 288 287 277 266 265 258 257 262 263 258 261 262 265 263 264 265 271 278 283 285 287 288 288 268 255 257 281 271 245 230 238 251 257 263 269 278 281 281 278
302 296 294 290 284 284 283 270 261 257 251 252 255 258 259 259 262 261 263 261 266 271 272 277 283 280 272 248 253 265 259 235 231 247 247 261 268 272 280 282 288 291 286
299 293 286 291 288 285 284 273 258 251 249 248 251 255 260 263 266 266 266 263 260 262 266 272 273 265 251 245 247 250 237 233 239 251 271 271 272 270 287 302 300 296 297
296 292 293 293 292 285 280 277 273 257 250 246 246 253 257 265 264 268 270 264 257 256 260 267 267 262 254 246 240 229 226 236 262 267 272 266 255 263 298 318 310 307 306
302 297 292 287 286 281 278 273 269 264 258 254 247 250 256 257 266 263 267 263 257 249 251 251 262 252 244 232 228 222 229 243 259 276 257 244 245 273 303 327 340 333 318
305 301 294 289 283 278 275 270 258 250 253 253 244 245 251 251 259 270 258 261 251 246 245 244 259 231 220 219 217 221 239 274 243 240 242 251 263 268 293 324 324 318 327
306 300 295 289 285 279 273 268 260 255 251 252 244 244 248 248 250 260 256 251 241 236 229 223 268 218 209 206 212 215 239 247 246 259 274 264 256 265 279 288 289 298 302
312 307 302 297 292 289 281 261 251 249 252 252 248 250 255 258 257 257 247 235 221 204 232 219 202 194 192 185 204 212 228 246 315 269 274 250 235 270 265 265 264 280 293
330 323 317 311 303 292 276 251 238 227 238 242 236 252 256 264 248 239 233 221 200 199 199 191 183 183 186 188 215 242 244 238 204 153 178 237 249 247 245 265 274 288 295
342 333 326 321 304 305 267 237 208 208 212 215 235 222 232 209 202 196 184 181 185 179 190 186 176 183 193 221 219 188 223 276 173 194 210 256 253 262 269 271 282 294 293
359 357 359 349 317 308 302 175 175 203 221 189 210 192 188 167 164 163 155 144 135 136 146 168 161 149 142 164 187 171 194 214 210 260 240 278 289 290 280 282 283 289 286
28 29 35 42 49 15 287 175 176 188 184 165 149 144 140 134 133 135 135 132 129 126 124 121 114 100 97 94 102 144 211 211 182 264 288 279 295 310 301 290 291 286 276
42 44 51 53 62 87 122 137 150 142 131 127 123 120 121 122 123 129 134 125 121 118 113 104 91 78 80 81 66 53 96 95 161 256 283 304 317 313 313 284 287 298 297
58 60 64 65 71 90 119 126 120 122 121 115 112 111 111 112 115 120 122 120 116 111 107 103 92 77 84 72 65 54 53 49 23 332 329 324 308 315 308 275 297 298 311